Regional Weather Roundup
Issued by NWS Newport/Morehead, NC

Current Version | Previous Version | Graphics & Text | Print | Product List | Glossary Off
Versions: 1 2 3 4 5 6 7 8 9 10 11 12 13 14 15 16 17 18 19 20 21 22 23 24 25 26 27 28 29 30 31 32 33 34 35 36 37 38 39 40 41 42 43 44 45 46 47 48 49 50
394 ASUS42 KMHX 301625 RWRMHX WEATHER ROUNDUP FOR EASTERN NORTH CAROLINA NATIONAL WEATHER SERVICE NEWPORT/MOREHEAD CITY NC 1200 PM EDT THU MAR 30 2017 NOTE: "FAIR" INDICATES FEW OR NO CLOUDS BELOW 12,000 FEET WITH NO SIGNIFICANT WEATHER AND/OR OBSTRUCTIONS TO VISIBILITY NCZ015>017-031-032-045>047-102-103-301700- NORTH COAST CITY SKY/WX TMP DP RH WIND PRES REMARKS EDENTON CLOUDY 58 46 63 E10 30.22S ELIZABETH CITY MOSUNNY 60 44 55 E12 30.21F KITTY HAWK NOT AVBL MANTEO PTSUNNY 56 44 63 E12 30.21S $$ NCZ045>047-081-094-103-104-301700- CENTRAL COAST CITY SKY/WX TMP DP RH WIND PRES REMARKS FRISCO SUNNY 61 48 62 NE13G25 30.18F $$ NCZ095-097-098-100-101-301700- SOUTHERN COAST CITY SKY/WX TMP DP RH WIND PRES REMARKS BEAUFORT PTSUNNY 66 51 58 E9 30.16F CEDAR ISLAND NOT AVBL JACKSONVILLE MOSUNNY 67 50 54 NE8 30.15F PINEY ISLAND PTSUNNY N/A N/A N/A NE17G26 30.18F WILMINGTON MOSUNNY 68 51 54 E15 30.14F $$ NCZ011>013-027>030-043-044-078>080-089-090>093-098-301700- COASTAL PLAIN CITY SKY/WX TMP DP RH WIND PRES REMARKS AHOSKIE N/A 55 43 64 E3 30.21F CLINTON MOSUNNY 63 47 57 E3 30.15F ELIZABETHTOWN MOSUNNY 65 51 59 E7 30.14S GOLDSBORO CLOUDY 59 44 57 E12 30.16S GREENVILLE CLOUDY 61 43 51 E9 30.19F HAVELOCK MOSUNNY 63 48 58 NE13G21 30.19S KENANSVILLE CLOUDY 63 46 55 E5 30.16S KINSTON CLOUDY 61 45 55 NE9 30.18F NEW BERN CLOUDY 63 44 50 E8 30.19S RICHLANDS CLOUDY 65 49 56 E10 30.16F ROCKY MOUNT CLOUDY 60 45 57 VRB5 30.18F WASHINGTON PTSUNNY 61 45 56 E8 30.19F WHITEVILLE CLOUDY 71 53 52 E8 30.11S $$ AMZ130-135-150-152-154-156-158-170-250-252-270-ANZ085-086-088-633-658-670-301700- MARINE OBSERVATIONS STATION/POSITION TIME TEMP WIND PRES WAVE SWELL AIR SEA DIR/SP/G HT/PER HT/PER (UTC) (F) (DEG/KT/KT) (MB) (FT/S) (FT/S) CHESAPEAKE LIGHT NOT AVBL 64 E VA BEACH 1550 51 52 60/ 12/ 14 1023.0 5/10 5/10 DUCK 1600 50 50 50/ 14/ 14 1022.7 2 E DUCK 1600 51 N/A 4/ 9 2/14 OREGON INLET 1600 54 50/ 8/ 13 1022.3 13E OREGON INLT 1548 49 N/A 5/ 8 5/ 8 HATTERAS CG 1600 57 59 40/ 8/ 12 1021.9 DIAMOND BUOY 1550 63 78 30/ 16/ 19 1021.4 7/ 8 5/ 8 CAPE LOOKOUT 1600 60 40/ 18/ 20 1021.0 BEAUFORT LAB 1600 63 61 70/ 6/ 12 1020.5 30 SE NEW RVR IN 1608 64 70/ 14/ 17 1020.5 30 SE NEW RVR IN 1543 65 N/A 5/11 2/11 27 SE WRIGHTSVLE 1608 69 73 120/ 14/ 19 1019.4 5 SE WRIGHTSVLE 1608 60 59 50/ 14/ 19 1020.4 225 S CAPE HAT 1550 68 72 60/ 12/ 16 1019.8 6/10 5/10 41 SE CHARLESTON 1550 70 70 110/ 14/ 17 1017.3 5/10 3/10 $$

USA.gov is the U.S. government's official web portal to all federal, state and local government web resources and services.